Temperature
18 18 18 18 18 19 19 18 18 18 18 18 18 18 18 18 18 18 18 18 18 18 18 18 18 18 18 18 18 18 18 17 17 17 17 17 18 18 18 17 17 17 17
18 18 18 18 18 18 18 18 18 18 18 18 18 18 18 18 18 18 18 18 18 18 18 18 18 18 18 18 18 18 17 17 17 17 17 17 17 17 17 17 17 17 17
18 18 18 18 18 18 18 18 18 18 18 18 18 18 18 18 18 18 18 18 18 18 18 18 17 17 17 17 17 17 17 17 17 17 17 17 17 17 17 17 17 17 16
18 18 18 18 18 18 18 18 18 18 18 18 18 18 18 18 18 18 18 17 17 18 18 18 18 17 17 17 17 17 17 17 17 17 17 17 17 17 17 17 16 16 16
18 18 18 19 18 18 18 18 18 18 18 18 18 18 18 18 18 18 18 17 17 17 18 18 18 18 18 17 17 17 17 17 17 17 17 17 17 17 16 16 16 16 16
18 19 19 19 18 18 18 18 18 18 18 18 18 18 18 18 18 18 18 17 17 17 17 17 17 18 18 17 17 17 17 17 17 17 17 16 16 16 16 16 16 16 16
19 19 19 19 18 18 18 18 18 18 18 18 18 18 18 18 18 18 18 17 17 17 17 17 17 17 17 17 17 17 17 17 17 17 16 16 16 16 17 16 16 16 16
19 19 19 19 18 18 18 18 18 18 18 18 17 17 17 17 18 18 18 17 17 17 17 17 17 17 17 17 17 17 17 17 17 17 16 16 16 16 16 16 16 16 16
18 18 18 18 18 18 18 18 18 18 18 17 17 17 17 17 17 18 18 17 17 17 17 17 17 17 17 17 17 17 17 17 17 16 16 16 16 16 16 16 16 16 16
18 18 18 18 18 18 18 18 17 17 17 17 17 17 17 16 16 17 17 17 17 17 17 17 17 17 17 17 17 17 17 16 16 16 16 16 16 16 16 16 16 16 16
18 18 17 17 17 17 17 17 17 17 17 17 16 16 16 16 16 16 16 17 17 17 17 17 17 17 17 17 17 16 16 16 16 16 16 16 16 16 16 16 16 16 16
17 17 17 17 17 17 17 17 17 17 17 16 16 16 16 16 16 16 16 16 16 17 17 17 17 17 17 17 17 16 16 16 16 16 16 16 16 16 16 16 16 16 16
17 16 16 16 16 16 16 16 16 16 16 16 16 16 16 16 15 15 15 15 16 16 16 16 16 16 16 16 16 16 16 16 16 16 16 16 16 16 16 16 16 16 16
16 16 15 15 15 15 15 15 15 15 15 15 15 15 15 15 15 15 15 15 15 15 15 16 16 16 16 16 16 16 16 16 15 15 15 15 15 15 15 15 15 15 15
15 15 15 15 15 14 15 15 15 15 15 15 15 15 15 15 15 15 15 15 14 14 15 15 16 16 16 16 16 16 15 15 15 15 15 15 15 15 15 15 15 15 15
14 14 14 14 14 14 14 14 15 15 15 15 15 15 15 15 15 15 15 14 14 14 14 15 15 15 15 15 15 15 15 15 15 15 15 15 15 15 15 15 15 15 15
13 13 13 14 14 14 14 14 14 15 15 15 15 15 15 15 15 14 14 14 14 14 14 14 14 14 14 15 15 15 15 15 14 14 14 14 14 14 14 15 15 15 15
13 13 13 13 14 14 14 14 14 15 15 15 15 15 15 15 15 14 14 14 14 14 14 14 14 14 14 14 14 14 14 14 14 14 14 14 14 14 14 14 14 14 14
13 13 13 14 14 14 14 14 14 15 15 15 15 15 15 15 15 15 14 14 14 14 14 14 14 14 14 14 14 14 14 14 14 14 14 14 14 14 14 14 14 14 14
13 14 14 14 14 14 14 14 15 15 15 15 15 15 15 15 15 15 15 14 14 14 14 14 14 14 14 14 14 14 14 14 14 14 14 14 14 14 14 14 14 14 14
13 14 14 14 14 14 14 14 14 15 15 15 15 15 15 15 15 15 15 14 14 14 14 14 14 14 14 13 13 13 13 13 13 13 13 14 14 14 14 14 14 14 14
13 13 13 13 13 13 14 14 14 14 14 15 15 15 15 15 15 15 14 14 14 14 14 14 14 13 13 13 13 13 13 13 13 13 13 13 13 13 13 13 13 13 13
12 12 12 12 13 13 13 13 14 14 14 14 14 14 14 14 14 14 14 14 14 14 14 14 14 13 13 13 13 13 13 13 12 12 13 13 13 13 13 13 13 13 13
11 11 11 12 12 12 13 13 13 13 14 14 14 14 14 14 14 14 14 14 14 14 14 14 13 13 13 13 13 13 13 12 12 12 12 12 12 12 12 12 12 12 12
11 11 11 11 11 12 12 12 13 13 13 13 13 13 14 14 14 14 14 14 14 14 14 14 13 13 13 13 13 13 12 12 12 12 12 12 12 12 12 11 11 11 11
10 11 11 11 11 11 11 12 12 12 12 13 13 13 13 13 13 14 14 14 14 14 14 13 13 13 13 13 12 12 12 12 12 12 12 11 11 11 11 11 11 11 11
Wind_Speed
5 6 7 8 10 10 8 6 6 6 7 8 7 7 7 9 10 10 9 10 8 7 7 6 6 5 4 4 4 5 6 6 6 7 7 6 6 6 6 6 6 5 5
8 7 6 6 8 10 10 7 6 4 4 3 4 6 9 11 11 10 10 9 8 7 7 7 7 6 6 5 5 6 6 7 7 7 7 6 6 6 6 6 6 6 5
12 10 8 8 8 12 10 6 4 4 3 3 5 5 6 9 10 10 10 9 8 7 7 7 7 7 6 6 6 6 7 7 7 7 7 7 7 7 7 6 6 6 6
15 11 8 8 10 10 6 4 3 4 3 3 3 2 3 5 7 10 10 9 9 8 8 8 8 7 7 6 6 6 6 7 7 7 7 7 7 7 6 6 6 6 6
15 10 7 7 10 6 4 5 3 3 3 3 2 2 2 3 4 7 7 10 11 10 9 9 9 8 8 7 6 6 6 6 6 6 6 6 6 5 5 4 4 5 5
13 10 6 7 8 6 5 4 4 3 3 3 2 1 1 2 2 4 6 9 11 12 12 10 10 10 9 8 8 7 7 7 6 6 6 6 5 5 5 5 5 6 6
11 9 6 7 7 7 7 7 4 4 2 2 3 2 3 2 2 3 4 5 7 12 12 12 11 10 10 10 9 8 8 8 7 7 6 6 6 6 5 5 5 5 5
9 9 8 7 7 6 6 6 5 4 2 3 4 2 2 4 3 2 2 5 7 8 9 13 12 12 11 10 10 10 9 8 8 7 6 6 6 6 5 5 5 5 4
8 7 6 7 7 7 7 6 5 6 4 2 2 4 4 4 3 4 2 2 5 6 6 9 12 14 13 12 11 11 11 10 9 8 7 6 5 5 5 4 4 3 2
7 8 7 6 6 5 6 5 5 4 5 3 2 2 3 4 3 2 3 2 2 5 6 6 9 13 15 14 14 14 13 12 10 9 8 7 6 5 5 4 3 3 3
4 5 6 5 5 4 5 5 4 4 4 4 4 3 2 2 2 3 3 3 3 2 4 5 5 10 16 16 16 16 16 14 12 10 9 8 7 6 5 5 4 4 4
4 5 5 5 5 4 5 5 5 5 4 4 4 4 3 3 3 4 5 4 3 3 2 3 4 6 13 16 17 19 19 17 15 12 11 10 9 8 7 6 5 5 4
4 5 5 4 4 4 4 4 4 4 4 4 4 4 4 4 3 4 4 3 3 3 3 2 3 6 10 14 16 20 20 20 18 15 14 12 11 10 9 8 8 7 7
3 4 4 4 3 4 4 4 3 4 4 4 5 5 3 4 4 4 4 4 2 2 2 4 2 3 8 12 16 20 18 21 20 18 16 15 13 12 11 10 10 9 9
4 4 4 4 3 3 3 4 3 4 4 4 4 5 4 4 4 4 4 4 5 3 3 4 3 2 4 8 13 16 16 19 21 20 18 17 16 15 14 13 11 10 9
4 3 3 2 2 2 1 2 3 4 5 4 4 5 4 3 4 4 4 4 4 5 4 3 3 2 2 4 9 13 15 16 19 20 19 19 19 18 17 16 15 13 12
3 3 2 1 1 0 1 2 3 5 5 5 4 5 5 4 3 3 3 3 4 4 4 3 2 2 2 2 2 6 10 11 12 17 19 20 20 19 19 18 17 16 15
5 4 3 2 1 1 1 0 2 3 5 5 5 5 4 4 4 3 3 3 3 4 4 4 2 2 2 2 2 2 4 7 9 12 17 19 20 20 20 19 18 18 17
5 4 4 4 4 4 3 2 2 3 3 3 4 4 5 5 4 3 3 3 2 2 3 2 2 1 2 1 0 1 2 2 5 7 10 14 17 19 19 19 19 18 18
5 5 5 6 6 6 5 4 3 1 1 1 2 4 5 6 6 5 4 3 3 2 2 1 1 1 1 1 0 1 2 2 2 3 4 6 10 14 16 17 17 17 18
8 7 7 7 6 5 5 5 4 3 2 1 1 2 3 6 8 6 4 4 4 3 2 1 1 1 1 1 1 1 2 2 2 2 2 2 2 4 7 11 13 15 16
8 8 8 8 8 7 9 8 4 2 2 2 2 2 2 4 6 6 7 6 6 4 3 2 1 0 1 1 1 1 1 1 2 2 1 2 0 1 2 4 6 8 11
7 7 7 6 6 8 12 11 8 3 2 2 3 3 3 3 3 3 3 4 3 3 4 4 3 2 1 1 0 1 1 1 1 3 2 2 3 2 1 2 0 2 4
6 6 6 6 6 10 15 13 9 5 3 2 2 3 4 4 3 4 4 3 1 0 2 3 3 2 2 1 1 1 0 1 2 3 2 2 3 3 3 4 4 4 4
6 6 5 7 8 9 15 14 10 4 4 5 4 4 4 4 3 6 6 5 4 2 2 4 3 3 2 3 3 3 3 3 3 3 3 2 3 3 3 3 6 6 6
6 6 7 7 7 8 14 15 10 4 5 4 4 4 5 4 4 7 6 7 6 3 3 4 3 4 4 5 5 3 2 2 2 2 3 2 3 3 3 3 3 6 7
Wind_Direction
191 189 201 206 212 218 219 222 230 240 247 250 236 198 175 172 171 175 183 181 177 179 180 176 176 178 182 185 182 178 175 172 169 165 163 162 163 163 167 171 173 169 161
192 192 200 208 215 220 222 219 221 217 213 192 164 148 156 167 174 178 182 184 184 185 191 192 190 190 194 198 198 195 192 188 186 184 184 183 184 186 192 198 197 187 177
198 196 200 206 214 220 223 215 213 186 177 163 135 136 146 161 175 179 181 183 186 191 196 197 193 192 196 200 203 204 199 197 198 199 200 202 205 209 212 216 215 204 195
201 193 195 201 203 205 198 180 164 146 157 137 136 153 147 156 175 181 182 186 188 193 197 192 185 187 191 193 198 199 197 196 199 203 207 210 214 217 219 221 221 215 215
202 188 189 191 187 179 173 172 151 146 144 146 166 174 180 177 180 182 185 192 194 195 195 195 190 186 185 188 192 194 195 197 200 203 207 212 215 216 218 221 224 229 234
197 184 181 178 169 161 162 155 144 137 143 154 137 106 265 238 203 186 193 195 197 197 199 198 196 194 191 190 193 195 196 198 200 203 210 215 218 224 229 235 242 244 246
185 178 176 169 162 164 166 155 140 137 135 128 94 34 346 323 261 219 191 182 194 199 198 201 201 200 198 198 199 201 201 200 202 207 214 223 230 236 239 243 249 251 249
179 180 170 166 163 155 157 157 145 140 146 139 132 113 345 329 317 298 191 187 196 196 198 204 204 206 203 200 203 201 201 201 203 207 214 223 229 235 237 240 244 246 240
174 170 164 159 162 161 168 170 161 156 166 175 155 148 164 222 292 320 301 210 197 196 200 200 205 208 206 203 203 205 202 197 200 205 211 216 222 229 226 223 219 207 201
167 162 160 161 168 167 166 175 174 169 159 172 181 188 171 157 170 298 320 317 231 209 206 207 207 206 204 202 204 204 202 199 199 205 208 211 215 216 214 212 208 205 191
163 159 156 159 166 167 167 172 166 172 174 173 174 176 170 168 170 179 263 309 327 268 228 218 200 200 203 201 202 205 204 202 201 203 206 208 208 208 210 208 201 194 194
157 153 148 153 161 162 167 170 169 170 179 180 182 179 170 164 184 185 213 240 269 287 269 234 211 200 199 200 202 204 205 205 205 205 206 210 212 214 215 213 211 211 214
154 156 147 151 156 155 160 159 162 174 179 187 189 189 184 188 174 171 179 209 238 282 301 272 229 209 201 198 203 204 206 208 209 208 208 210 213 219 222 223 227 227 227
130 132 131 137 141 153 155 161 163 182 189 194 196 185 180 196 182 175 172 169 202 282 294 274 281 224 209 200 205 204 208 211 212 212 212 212 214 218 223 228 233 234 235
103 103 115 122 138 156 160 158 164 197 194 193 193 188 186 195 184 181 171 169 171 205 258 268 267 262 223 209 210 205 209 215 216 217 217 218 219 221 224 228 232 235 235
84 86 90 108 125 134 141 157 184 201 185 186 188 180 187 194 187 177 176 179 177 179 221 257 254 264 246 214 211 207 215 221 222 224 225 226 226 226 227 228 230 231 231
71 77 75 75 92 187 209 198 208 195 182 191 193 188 196 187 178 182 172 174 181 176 212 259 261 263 242 234 198 208 221 226 229 232 233 234 233 232 231 230 230 232 233
46 39 35 38 19 354 351 229 238 218 202 195 196 188 198 185 181 181 173 184 187 188 194 237 273 273 253 241 218 223 224 227 228 238 239 239 238 237 235 234 234 234 235
39 36 36 37 36 33 15 327 269 252 232 213 195 186 186 168 177 173 173 176 180 175 179 200 263 288 279 285 277 277 262 257 249 251 249 247 245 241 238 237 237 238 239
48 48 44 44 47 43 29 5 355 319 296 266 210 187 177 172 173 166 160 158 146 131 137 156 263 312 304 313 34 274 290 274 269 272 265 258 250 245 243 241 242 243 244
57 58 59 52 44 45 32 23 18 26 17 53 110 154 180 181 172 163 154 153 137 122 109 97 58 13 350 347 295 270 266 292 292 281 275 263 244 241 244 245 245 246 248
56 59 61 57 48 38 27 27 29 39 32 93 110 126 159 170 170 158 151 153 148 141 141 132 122 104 311 302 308 307 299 352 323 339 326 314 300 270 261 248 254 256 258
54 57 53 51 43 26 28 25 31 50 58 96 134 131 135 138 132 133 150 151 156 155 153 151 154 192 210 268 323 20 13 13 323 333 351 351 360 351 354 29 358 285 283
49 51 46 40 33 25 28 27 30 41 57 66 97 133 140 134 145 161 153 146 146 30 180 154 161 180 179 168 145 146 123 59 15 355 11 29 360 360 358 12 21 26 16
42 43 40 35 31 17 24 30 39 35 53 54 58 83 111 123 146 153 143 135 112 64 79 134 145 137 114 98 96 72 51 60 37 356 6 45 1 351 356 3 15 23 24
43 48 45 36 30 18 20 28 35 42 57 55 46 49 64 83 110 138 142 140 140 141 113 94 75 65 55 48 54 68 92 84 72 17 352 38 11 13 16 356 4 16 21
Height
1550 1552 1553 1554 1555 1556 1557 1558 1558 1559 1560 1560 1560 1561 1562 1563 1564 1564 1564 1563 1563 1563 1563 1563 1564 1564 1565 1565 1566 1566 1567 1567 1568 1569 1569 1569 1570 1570 1570 1570 1570 1571 1571
1549 1551 1552 1554 1555 1556 1557 1558 1558 1559 1559 1560 1560 1561 1561 1562 1563 1564 1564 1563 1563 1563 1562 1563 1563 1564 1564 1564 1565 1565 1566 1566 1567 1568 1568 1569 1569 1569 1570 1570 1570 1570 1570
1547 1549 1551 1553 1554 1555 1556 1557 1558 1558 1559 1560 1560 1561 1561 1562 1563 1563 1563 1563 1563 1563 1562 1562 1563 1563 1563 1563 1564 1564 1565 1565 1566 1567 1567 1568 1568 1568 1569 1569 1569 1568 1568
1545 1547 1549 1550 1552 1554 1555 1556 1557 1557 1558 1559 1560 1560 1560 1561 1562 1562 1562 1563 1563 1563 1562 1562 1562 1562 1562 1563 1563 1563 1564 1564 1565 1565 1566 1566 1567 1567 1567 1567 1567 1567 1567
1543 1544 1546 1548 1550 1552 1553 1554 1555 1556 1557 1558 1559 1559 1559 1560 1560 1561 1561 1562 1562 1562 1562 1562 1562 1562 1562 1562 1562 1562 1562 1563 1563 1564 1564 1565 1565 1565 1565 1565 1566 1566 1565
1540 1542 1543 1545 1547 1549 1550 1552 1553 1554 1555 1556 1557 1557 1558 1559 1559 1559 1560 1560 1561 1561 1561 1562 1561 1561 1561 1561 1561 1561 1561 1561 1562 1562 1562 1563 1563 1563 1563 1563 1563 1563 1563
1536 1538 1540 1542 1543 1545 1547 1549 1551 1552 1553 1554 1555 1556 1556 1556 1557 1557 1558 1558 1559 1560 1560 1561 1561 1561 1561 1561 1560 1560 1560 1560 1560 1560 1561 1561 1561 1561 1561 1561 1561 1561 1561
1531 1534 1536 1538 1540 1542 1544 1546 1547 1548 1550 1551 1552 1553 1554 1555 1554 1555 1555 1555 1556 1557 1558 1559 1559 1560 1560 1560 1560 1560 1559 1559 1559 1559 1559 1559 1559 1559 1559 1559 1559 1559 1560
1527 1529 1531 1534 1536 1538 1540 1542 1544 1545 1546 1547 1549 1550 1550 1550 1551 1552 1552 1553 1554 1554 1555 1556 1557 1558 1558 1559 1559 1559 1559 1558 1558 1558 1558 1558 1558 1558 1558 1558 1558 1558 1558
1522 1525 1526 1529 1532 1534 1536 1538 1540 1541 1542 1543 1544 1546 1547 1547 1549 1549 1550 1550 1551 1552 1553 1553 1554 1555 1556 1556 1557 1557 1558 1557 1557 1557 1557 1557 1557 1557 1557 1557 1557 1557 1557
1517 1519 1522 1524 1527 1530 1532 1534 1535 1536 1537 1538 1540 1541 1542 1543 1545 1546 1546 1547 1548 1549 1550 1551 1551 1552 1553 1554 1554 1555 1556 1556 1556 1556 1555 1555 1555 1555 1556 1556 1556 1556 1555
1511 1513 1517 1520 1522 1525 1527 1529 1531 1533 1533 1534 1535 1536 1538 1539 1540 1542 1543 1543 1545 1546 1547 1547 1548 1549 1550 1551 1551 1552 1553 1553 1554 1554 1554 1554 1554 1554 1554 1554 1554 1554 1554
1507 1509 1512 1515 1518 1520 1523 1525 1527 1529 1530 1531 1532 1532 1534 1535 1537 1538 1539 1540 1541 1542 1543 1544 1544 1546 1546 1547 1548 1549 1550 1551 1551 1551 1551 1551 1551 1552 1552 1552 1552 1552 1552
1503 1506 1508 1511 1513 1516 1518 1521 1523 1525 1527 1528 1529 1530 1531 1532 1533 1534 1535 1537 1537 1538 1538 1539 1540 1541 1543 1544 1545 1546 1547 1548 1548 1549 1549 1549 1549 1549 1549 1550 1550 1550 1550
1501 1503 1506 1507 1510 1513 1516 1518 1520 1522 1524 1525 1526 1527 1528 1529 1530 1531 1532 1533 1534 1534 1534 1535 1536 1537 1539 1540 1541 1542 1543 1544 1545 1546 1546 1546 1546 1546 1547 1547 1547 1547 1547
1500 1502 1504 1506 1509 1511 1514 1516 1518 1520 1522 1523 1524 1525 1526 1527 1527 1528 1528 1529 1530 1531 1531 1531 1532 1534 1535 1536 1537 1538 1540 1541 1541 1542 1543 1543 1543 1544 1544 1544 1544 1544 1544
1501 1502 1504 1506 1508 1511 1512 1514 1516 1518 1520 1521 1522 1523 1524 1525 1525 1526 1526 1527 1527 1527 1528 1528 1529 1530 1530 1532 1533 1534 1535 1536 1537 1538 1539 1539 1540 1540 1541 1541 1541 1541 1541
1503 1504 1505 1507 1509 1510 1512 1513 1515 1517 1518 1520 1521 1522 1523 1524 1524 1524 1524 1525 1525 1525 1525 1525 1526 1526 1527 1528 1528 1529 1531 1531 1532 1534 1535 1535 1536 1536 1537 1537 1537 1538 1538
1505 1506 1507 1508 1509 1510 1511 1513 1514 1516 1518 1519 1520 1521 1522 1523 1523 1523 1523 1523 1523 1523 1523 1523 1523 1524 1524 1525 1525 1526 1527 1527 1528 1529 1530 1530 1531 1532 1532 1533 1533 1533 1534
1507 1507 1508 1508 1509 1510 1511 1512 1513 1515 1516 1517 1519 1520 1521 1522 1522 1522 1522 1522 1522 1522 1522 1522 1522 1522 1522 1522 1523 1523 1524 1524 1524 1525 1525 1525 1526 1527 1527 1527 1528 1528 1528
1508 1508 1508 1508 1509 1509 1510 1511 1512 1513 1514 1516 1518 1519 1520 1521 1522 1522 1522 1522 1522 1522 1522 1521 1521 1521 1521 1521 1521 1521 1521 1521 1521 1521 1521 1521 1521 1521 1522 1523 1523 1523 1523
1509 1509 1508 1508 1508 1508 1509 1509 1510 1511 1512 1514 1515 1517 1519 1520 1521 1521 1522 1522 1522 1522 1522 1522 1522 1521 1521 1521 1520 1519 1519 1519 1518 1519 1518 1518 1517 1517 1518 1518 1519 1519 1519
1511 1510 1509 1508 1508 1507 1507 1508 1508 1509 1510 1511 1513 1515 1517 1519 1520 1521 1522 1522 1522 1522 1522 1522 1522 1522 1521 1520 1519 1519 1518 1517 1517 1517 1516 1516 1515 1515 1515 1515 1515 1516 1515
1513 1512 1510 1509 1509 1507 1507 1506 1506 1507 1508 1509 1511 1513 1515 1517 1518 1520 1521 1522 1522 1523 1523 1522 1522 1522 1521 1520 1520 1519 1518 1518 1517 1517 1516 1516 1515 1514 1514 1514 1514 1514 1513
1515 1514 1512 1511 1510 1508 1507 1506 1506 1506 1507 1508 1509 1511 1513 1515 1517 1518 1520 1521 1522 1522 1523 1523 1522 1522 1522 1521 1521 1520 1519 1519 1518 1518 1517 1516 1516 1515 1515 1515 1514 1514 1513
1517 1516 1514 1512 1511 1509 1507 1506 1506 1506 1506 1507 1508 1509 1511 1513 1514 1516 1518 1520 1521 1522 1522 1523 1523 1523 1522 1522 1521 1521 1520 1520 1519 1519 1518 1517 1517 1516 1516 1516 1515 1514 1513